Regional Weather Roundup
Issued by NWS

Home | Current Version | Previous Version | Text Only | Print | Product List | Glossary On
Versions: 1 2 3 4 5 6 7 8 9 10 11 12 13 14 15 16 17 18 19 20 21 22 23 24 25 26 27 28 29 30 31 32 33 34 35 36 37 38 39 40 41 42 43 44 45 46 47 48 49 50
000
ASUS42 KKEY 040710
RWRKEY

FLORIDA REGIONAL WEATHER ROUNDUP FOR THE FLORIDA KEYS
NATIONAL WEATHER SERVICE KEY WEST FLORIDA
300 AM EDT SAT JUL 04 2015

...SOUTH FLORIDA AND THE KEYS...

CITY           SKY/WX    TMP DP  RH WIND       PRES   REMARKS
FORT MYERS     PTCLDY    73  73 100 CALM      30.06F
SW REGIONAL AP CLEAR     73  71  93 CALM      30.07F
NAPLES         CLEAR     73  72  96 NE7       30.06F
MIAMI          MOCLDY    77  71  82 W3        30.07F
WEST KENDALL   CLEAR     75  73  93 CALM      30.07F
HOMESTEAD      CLEAR     78  73  83 NW3       30.07F
MARATHON       CLEAR     84  76  76 E8        30.06F HX  93
BOCA CHICA NAS PTCLDY    84  75  74 E13       30.05F HX  92
KEY WEST INTL  PTCLDY    84  77  79 E14       30.06F HX  94

...INTERNATIONAL WEATHER...

CITY           SKY/WX    TMP DP  RH WIND       PRES   REMARKS
NASSAU BAHAMAS PTCLDY    81  75  83 E3        30.09F
CANCUN MEXICO  PTCLDY    82  79  89 NE5       30.02F HX  93
COZUMEL MEXICO PTCLDY    77  77 100 CALM      30.02S

ADJACENT COASTAL WATERS...

STATION/POSITION TIME  SKY/WX   TEMP    WIND        PRES    WAVE
                                AIR SEA DIR/SP/G            HT/PER
                 (UTC)          (F)     (DEG/KT/KT) (MB)    (FT/S)
PULASKI SHOAL LI 0600            84      70/ 14/ 16 1018.0F
SAND KEY         0650            84      90/ 13/ 16 1017.7F
SOMBRERO KEY     0600            83      70/ 11/ 12 1019.1F
LONG KEY         0600            84 87  110/  8/  9 1019.4F
MOLASSES REEF    0600            83 85  110/  8/  9 1018.6F
FOWEY ROCKS      NOT AVBL

$$


USA.gov is the U.S. government's official web portal to all federal, state and local government web resources and services.